TimeEST,TemperatureF,Dew PointF,Humidity,Sea Level PressureIn,VisibilityMPH,Wind Direction,Wind SpeedMPH,Gust SpeedMPH,PrecipitationIn,Events,Conditions,WindDirDegrees,DateUTC
8:55 AM,-9999,-9999,N/A,29.57,-9999.0,West,21.9,28.8,N/A,,Unknown,270,2013-01-31 13:55:00
9:15 AM,-9999,-9999,N/A,29.59,-9999.0,West,21.9,26.5,N/A,,Unknown,270,2013-01-31 14:15:00
9:35 AM,-9999,-9999,N/A,29.59,-9999.0,West,20.7,28.8,N/A,,Unknown,280,2013-01-31 14:35:00
9:55 AM,-9999,-9999,N/A,29.60,-9999.0,West,29.9,38.0,N/A,,Unknown,270,2013-01-31 14:55:00
10:15 AM,-9999,-9999,N/A,-9999,-9999.0,North,-9999.0,-,N/A,,Unknown,0,2013-01-31 15:15:00
10:35 AM,-9999,-9999,N/A,-9999,-9999.0,North,-9999.0,-,N/A,,Unknown,0,2013-01-31 15:35:00
10:55 AM,-9999,-9999,N/A,-9999,-9999.0,North,-9999.0,-,N/A,,Unknown,0,2013-01-31 15:55:00
11:15 AM,-9999,-9999,N/A,-9999,-9999.0,North,-9999.0,-,N/A,,Unknown,0,2013-01-31 16:15:00
11:35 AM,-9999,-9999,N/A,-9999,-9999.0,North,-9999.0,-,N/A,,Unknown,0,2013-01-31 16:35:00
11:55 AM,21.2,15.8,80,29.64,-9999.0,West,28.8,38.0,N/A,,Mostly Cloudy,280,2013-01-31 16:55:00
12:15 PM,21.2,15.8,80,29.65,-9999.0,West,24.2,39.1,N/A,,Overcast,280,2013-01-31 17:15:00
12:35 PM,21.2,15.8,80,29.64,-9999.0,West,20.7,32.2,N/A,,Overcast,280,2013-01-31 17:35:00
1:15 PM,21.2,15.8,80,29.65,-9999.0,West,23.0,32.2,N/A,,Overcast,270,2013-01-31 18:15:00
1:35 PM,21.2,12.2,68,29.63,-9999.0,West,29.9,47.2,N/A,,Overcast,280,2013-01-31 18:35:00
1:55 PM,21.2,12.2,68,29.63,-9999.0,West,28.8,43.7,N/A,,Mostly Cloudy,280,2013-01-31 18:55:00
2:15 PM,19.4,14.0,80,29.67,-9999.0,West,24.2,33.4,N/A,,Overcast,270,2013-01-31 19:15:00
2:35 PM,19.4,14.0,80,29.65,-9999.0,West,31.1,43.7,N/A,Snow,Light Snow,280,2013-01-31 19:35:00
2:55 PM,21.2,12.2,68,29.65,-9999.0,West,32.2,48.3,N/A,,Mostly Cloudy,270,2013-01-31 19:55:00
3:15 PM,21.2,10.4,63,29.65,-9999.0,West,32.2,40.3,N/A,,Scattered Clouds,270,2013-01-31 20:15:00
3:35 PM,21.2,12.2,68,29.68,-9999.0,West,28.8,38.0,N/A,,Mostly Cloudy,280,2013-01-31 20:35:00
4:15 PM,21.2,12.2,68,29.67,-9999.0,West,35.7,54.1,N/A,,Scattered Clouds,280,2013-01-31 21:15:00
4:35 PM,21.2,12.2,68,29.70,-9999.0,WNW,34.5,42.6,N/A,,Mostly Cloudy,290,2013-01-31 21:35:00
4:55 PM,21.2,12.2,68,29.71,-9999.0,West,25.3,50.6,N/A,,Overcast,270,2013-01-31 21:55:00
5:15 PM,19.4,14.0,80,29.72,-9999.0,West,25.3,36.8,N/A,,Overcast,270,2013-01-31 22:15:00
5:35 PM,19.4,15.8,86,29.73,-9999.0,West,21.9,31.1,N/A,,Overcast,270,2013-01-31 22:35:00
5:55 PM,19.4,12.2,74,29.74,-9999.0,West,27.6,38.0,N/A,,Mostly Cloudy,280,2013-01-31 22:55:00
6:15 PM,19.4,12.2,74,29.73,-9999.0,West,28.8,42.6,N/A,,Mostly Cloudy,280,2013-01-31 23:15:00
6:35 PM,19.4,12.2,74,29.74,-9999.0,West,24.2,39.1,N/A,,Mostly Cloudy,270,2013-01-31 23:35:00
6:55 PM,17.6,12.2,79,29.76,-9999.0,West,20.7,31.1,N/A,,Mostly Cloudy,280,2013-01-31 23:55:00
7:15 PM,17.6,12.2,79,29.75,-9999.0,West,25.3,34.5,N/A,,Mostly Cloudy,270,2013-02-01 00:15:00
7:35 PM,17.6,12.2,79,29.75,-9999.0,West,20.7,36.8,N/A,,Overcast,270,2013-02-01 00:35:00
7:55 PM,17.6,12.2,79,29.75,-9999.0,West,24.2,35.7,N/A,,Scattered Clouds,280,2013-02-01 00:55:00
8:15 PM,17.6,12.2,79,29.74,-9999.0,West,21.9,28.8,N/A,,Scattered Clouds,270,2013-02-01 01:15:00
8:35 PM,17.6,12.2,79,29.74,-9999.0,West,23.0,33.4,N/A,,Mostly Cloudy,280,2013-02-01 01:35:00
8:55 PM,17.6,12.2,79,29.74,-9999.0,West,21.9,32.2,N/A,,Mostly Cloudy,270,2013-02-01 01:55:00
9:15 PM,17.6,14.0,86,29.74,-9999.0,West,19.6,41.4,N/A,,Unknown,280,2013-02-01 02:15:00
9:35 PM,17.6,15.8,93,29.74,-9999.0,West,23.0,35.7,N/A,,Unknown,270,2013-02-01 02:35:00
9:55 PM,19.4,15.8,86,29.75,-9999.0,West,21.9,33.4,N/A,,Unknown,280,2013-02-01 02:55:00
10:15 PM,19.4,15.8,86,29.75,-9999.0,West,20.7,29.9,N/A,,Overcast,270,2013-02-01 03:15:00
10:35 PM,19.4,17.6,93,29.74,-9999.0,West,20.7,32.2,N/A,,Overcast,280,2013-02-01 03:35:00
10:55 PM,19.4,17.6,93,29.74,-9999.0,West,19.6,34.5,N/A,,Overcast,270,2013-02-01 03:55:00
11:15 PM,-9999,-9999,N/A,29.73,-9999.0,West,20.7,25.3,N/A,,Unknown,270,2013-02-01 04:15:00
11:35 PM,-9999,-9999,N/A,29.73,-9999.0,West,19.6,29.9,N/A,,Unknown,270,2013-02-01 04:35:00
11:55 PM,-9999,-9999,N/A,29.73,-9999.0,West,23.0,56.4,N/A,,Unknown,270,2013-02-01 04:55:00